Wetterdaten: Dienstag, 12.05.2015
Datum Zeit Auen-Temp. Temp gefhlt Luftfeuchte Luftdruck Regen Wind Richtung Richtung Taupunkt Windben
12.05.2015 00:00 10,4 C 10,1 C 68 % 1022,9 hPa 0,0 mm 0,0 km/h (0 Bft) O-SO 112 4,8 C 0,0 km/h (0 Bft)
12.05.2015 00:05 10,5 C 10,1 C 69 % 1022,9 hPa 0,0 mm 0,0 km/h (0 Bft) O-SO 112 5,1 C 0,0 km/h (0 Bft)
12.05.2015 00:10 10,0 C 9,7 C 68 % 1022,9 hPa 0,0 mm 0,0 km/h (0 Bft) NW 315 4,4 C 0,0 km/h (0 Bft)
12.05.2015 00:15 9,9 C 9,6 C 69 % 1023,0 hPa 0,0 mm 0,0 km/h (0 Bft) N-NO 22 4,5 C 0,0 km/h (0 Bft)
12.05.2015 00:20 9,8 C 9,5 C 70 % 1023,0 hPa 0,0 mm 0,0 km/h (0 Bft) N-NO 22 4,6 C 0,0 km/h (0 Bft)
12.05.2015 00:25 9,6 C 9,3 C 70 % 1023,0 hPa 0,0 mm 0,0 km/h (0 Bft) N-NW 337 4,4 C 0,0 km/h (0 Bft)
12.05.2015 00:30 9,9 C 9,5 C 71 % 1023,0 hPa 0,0 mm 0,0 km/h (0 Bft) N-NO 22 4,9 C 0,0 km/h (0 Bft)
12.05.2015 00:35 9,7 C 9,3 C 70 % 1023,1 hPa 0,0 mm 0,0 km/h (0 Bft) N-NO 22 4,5 C 0,0 km/h (0 Bft)
12.05.2015 00:40 9,4 C 9,1 C 71 % 1023,1 hPa 0,0 mm 0,0 km/h (0 Bft) N-NO 22 4,4 C 0,0 km/h (0 Bft)
12.05.2015 00:45 9,4 C 9,1 C 71 % 1023,1 hPa 0,0 mm 0,0 km/h (0 Bft) N-NO 22 4,4 C 0,0 km/h (0 Bft)
12.05.2015 00:50 9,5 C 9,2 C 72 % 1023,1 hPa 0,0 mm 0,0 km/h (0 Bft) N-NO 22 4,7 C 0,0 km/h (0 Bft)
12.05.2015 00:55 9,3 C 9,0 C 72 % 1023,1 hPa 0,0 mm 0,0 km/h (0 Bft) N-NO 22 4,5 C 0,0 km/h (0 Bft)
12.05.2015 01:00 9,3 C 9,0 C 72 % 1023,1 hPa 0,0 mm 0,0 km/h (0 Bft) N-NO 22 4,5 C 0,0 km/h (0 Bft)
12.05.2015 01:05 9,3 C 9,0 C 72 % 1023,1 hPa 0,0 mm 0,0 km/h (0 Bft) W-NW 292 4,5 C 0,0 km/h (0 Bft)
12.05.2015 01:10 9,2 C 8,9 C 73 % 1023,1 hPa 0,0 mm 0,0 km/h (0 Bft) N-NO 22 4,6 C 0,0 km/h (0 Bft)
12.05.2015 01:15 9,0 C 8,7 C 73 % 1022,8 hPa 0,0 mm 0,0 km/h (0 Bft) N-NO 22 4,4 C 0,0 km/h (0 Bft)
12.05.2015 01:20 8,6 C 8,4 C 73 % 1022,8 hPa 0,0 mm 0,0 km/h (0 Bft) N-NO 22 4,0 C 0,0 km/h (0 Bft)
12.05.2015 01:25 8,8 C 8,5 C 74 % 1022,8 hPa 0,0 mm 0,0 km/h (0 Bft) N-NO 22 4,4 C 0,0 km/h (0 Bft)
12.05.2015 01:30 8,9 C 8,5 C 74 % 1022,8 hPa 0,0 mm 0,0 km/h (0 Bft) N-NO 22 4,5 C 0,0 km/h (0 Bft)
12.05.2015 01:35 8,8 C 8,5 C 74 % 1022,5 hPa 0,0 mm 0,0 km/h (0 Bft) N-NO 22 4,4 C 0,0 km/h (0 Bft)
12.05.2015 01:40 8,6 C 8,3 C 74 % 1022,5 hPa 0,0 mm 0,0 km/h (0 Bft) N-NO 22 4,2 C 0,0 km/h (0 Bft)
12.05.2015 01:45 8,6 C 8,3 C 74 % 1022,5 hPa 0,0 mm 0,0 km/h (0 Bft) N-NO 22 4,2 C 0,0 km/h (0 Bft)
12.05.2015 01:50 8,4 C 8,1 C 74 % 1022,5 hPa 0,0 mm 0,0 km/h (0 Bft) N-NO 22 4,0 C 0,0 km/h (0 Bft)
12.05.2015 01:55 8,5 C 8,2 C 74 % 1022,4 hPa 0,0 mm 0,0 km/h (0 Bft) N-NO 22 4,1 C 0,0 km/h (0 Bft)
12.05.2015 02:00 8,6 C 8,2 C 74 % 1022,4 hPa 0,0 mm 0,0 km/h (0 Bft) N-NO 22 4,2 C 0,0 km/h (0 Bft)
12.05.2015 02:05 8,4 C 8,1 C 74 % 1022,4 hPa 0,0 mm 0,0 km/h (0 Bft) N-NO 22 4,0 C 0,0 km/h (0 Bft)
12.05.2015 02:10 8,3 C 8,0 C 74 % 1022,4 hPa 0,0 mm 0,0 km/h (0 Bft) N-NO 22 3,9 C 0,0 km/h (0 Bft)
12.05.2015 02:15 8,2 C 7,9 C 74 % 1022,4 hPa 0,0 mm 0,0 km/h (0 Bft) N-NO 22 3,8 C 0,0 km/h (0 Bft)
12.05.2015 02:20 8,6 C 8,2 C 75 % 1022,4 hPa 0,0 mm 0,0 km/h (0 Bft) N-NO 22 4,4 C 0,0 km/h (0 Bft)
12.05.2015 02:25 8,5 C 8,2 C 75 % 1022,4 hPa 0,0 mm 0,0 km/h (0 Bft) N-NO 22 4,3 C 0,0 km/h (0 Bft)
12.05.2015 02:30 8,4 C 8,1 C 75 % 1022,4 hPa 0,0 mm 0,0 km/h (0 Bft) N-NO 22 4,2 C 0,0 km/h (0 Bft)
12.05.2015 02:35 8,4 C 8,1 C 75 % 1022,2 hPa 0,0 mm 0,0 km/h (0 Bft) N-NO 22 4,2 C 0,0 km/h (0 Bft)
12.05.2015 02:40 8,2 C 8,0 C 74 % 1022,2 hPa 0,0 mm 0,0 km/h (0 Bft) N-NO 22 3,8 C 0,0 km/h (0 Bft)
12.05.2015 02:45 8,3 C 8,1 C 75 % 1022,2 hPa 0,0 mm 0,0 km/h (0 Bft) N-NO 22 4,1 C 0,0 km/h (0 Bft)
12.05.2015 02:50 8,1 C 7,9 C 74 % 1022,2 hPa 0,0 mm 0,0 km/h (0 Bft) W-NW 292 3,8 C 0,0 km/h (0 Bft)
12.05.2015 02:55 8,2 C 8,0 C 74 % 1022,1 hPa 0,0 mm 0,0 km/h (0 Bft) NW 315 3,8 C 0,0 km/h (0 Bft)
12.05.2015 03:00 8,1 C 8,0 C 74 % 1022,1 hPa 0,0 mm 0,0 km/h (0 Bft) N-NW 337 3,8 C 0,0 km/h (0 Bft)
12.05.2015 03:05 8,0 C 7,9 C 74 % 1022,1 hPa 0,0 mm 0,0 km/h (0 Bft) N-NW 337 3,7 C 0,0 km/h (0 Bft)
12.05.2015 03:10 8,1 C 8,0 C 74 % 1022,1 hPa 0,0 mm 0,0 km/h (0 Bft) N-NW 337 3,8 C 0,0 km/h (0 Bft)
12.05.2015 03:15 8,2 C 8,1 C 74 % 1022,0 hPa 0,0 mm 0,0 km/h (0 Bft) NW 315 3,8 C 0,0 km/h (0 Bft)
12.05.2015 03:20 8,1 C 8,0 C 74 % 1022,0 hPa 0,0 mm 0,0 km/h (0 Bft) N-NW 337 3,8 C 0,0 km/h (0 Bft)
12.05.2015 03:25 8,0 C 8,0 C 74 % 1022,0 hPa 0,0 mm 0,0 km/h (0 Bft) N-NW 337 3,7 C 0,0 km/h (0 Bft)
12.05.2015 03:30 8,0 C 8,0 C 74 % 1022,0 hPa 0,0 mm 0,0 km/h (0 Bft) N-NW 337 3,7 C 0,0 km/h (0 Bft)
12.05.2015 03:35 7,9 C 7,9 C 73 % 1021,9 hPa 0,0 mm 0,0 km/h (0 Bft) N-NW 337 3,4 C 0,0 km/h (0 Bft)
12.05.2015 03:40 7,9 C 7,9 C 74 % 1021,9 hPa 0,0 mm 0,0 km/h (0 Bft) NW 315 3,6 C 0,0 km/h (0 Bft)
12.05.2015 03:45 8,1 C 8,0 C 74 % 1021,9 hPa 0,0 mm 0,0 km/h (0 Bft) N-NW 337 3,8 C 0,0 km/h (0 Bft)
12.05.2015 03:50 8,3 C 8,2 C 74 % 1021,9 hPa 0,0 mm 0,0 km/h (0 Bft) S-SO 157 3,9 C 0,0 km/h (0 Bft)
12.05.2015 03:55 8,4 C 8,3 C 73 % 1021,7 hPa 0,0 mm 0,0 km/h (0 Bft) O-NO 67 3,8 C 0,0 km/h (0 Bft)
12.05.2015 04:00 8,6 C 8,5 C 73 % 1021,7 hPa 0,0 mm 0,0 km/h (0 Bft) N-NO 22 4,0 C 0,0 km/h (0 Bft)
12.05.2015 04:05 8,7 C 8,6 C 73 % 1021,7 hPa 0,0 mm 0,0 km/h (0 Bft) O-NO 67 4,1 C 0,0 km/h (0 Bft)
12.05.2015 04:10 8,7 C 8,6 C 73 % 1021,7 hPa 0,0 mm 0,0 km/h (0 Bft) O 90 4,1 C 0,0 km/h (0 Bft)
12.05.2015 04:15 8,8 C 8,7 C 72 % 1021,5 hPa 0,0 mm 0,0 km/h (0 Bft) O-NO 67 4,0 C 0,0 km/h (0 Bft)
12.05.2015 04:20 9,0 C 8,9 C 72 % 1021,5 hPa 0,0 mm 0,0 km/h (0 Bft) NO 45 4,2 C 0,0 km/h (0 Bft)
12.05.2015 04:25 9,0 C 9,0 C 71 % 1021,5 hPa 0,0 mm 0,0 km/h (0 Bft) N-NO 22 4,0 C 0,0 km/h (0 Bft)
12.05.2015 04:30 9,0 C 9,0 C 71 % 1021,5 hPa 0,0 mm 0,0 km/h (0 Bft) O-SO 112 4,0 C 0,0 km/h (0 Bft)
12.05.2015 04:35 9,2 C 9,1 C 71 % 1021,6 hPa 0,0 mm 0,0 km/h (0 Bft) N-NO 22 4,2 C 0,0 km/h (0 Bft)
12.05.2015 04:40 9,1 C 9,1 C 70 % 1021,6 hPa 0,0 mm 0,0 km/h (0 Bft) W-NW 292 3,9 C 0,0 km/h (0 Bft)
12.05.2015 04:45 8,9 C 8,9 C 70 % 1021,6 hPa 0,0 mm 0,0 km/h (0 Bft) N-NW 337 3,7 C 0,0 km/h (0 Bft)
12.05.2015 04:50 8,6 C 8,6 C 70 % 1021,6 hPa 0,0 mm 0,0 km/h (0 Bft) NW 315 3,4 C 0,0 km/h (0 Bft)
12.05.2015 04:55 8,5 C 8,6 C 70 % 1021,4 hPa 0,0 mm 0,0 km/h (0 Bft) NW 315 3,3 C 0,0 km/h (0 Bft)
12.05.2015 05:00 8,4 C 8,4 C 70 % 1021,4 hPa 0,0 mm 0,0 km/h (0 Bft) NW 315 3,3 C 3,6 km/h (1 Bft)
12.05.2015 05:05 8,4 C 8,4 C 70 % 1021,4 hPa 0,0 mm 0,0 km/h (0 Bft) W-NW 292 3,3 C 0,0 km/h (0 Bft)
12.05.2015 05:10 8,6 C 8,5 C 70 % 1021,4 hPa 0,0 mm 0,0 km/h (0 Bft) NW 315 3,4 C 0,0 km/h (0 Bft)
12.05.2015 05:15 8,5 C 8,4 C 70 % 1021,4 hPa 0,0 mm 0,0 km/h (0 Bft) W-NW 292 3,3 C 0,0 km/h (0 Bft)
12.05.2015 05:20 8,6 C 8,4 C 70 % 1021,4 hPa 0,0 mm 0,0 km/h (0 Bft) O-NO 67 3,4 C 0,0 km/h (0 Bft)
12.05.2015 05:25 8,5 C 8,3 C 70 % 1021,4 hPa 0,0 mm 0,0 km/h (0 Bft) W 270 3,3 C 0,0 km/h (0 Bft)
12.05.2015 05:30 8,3 C 8,2 C 70 % 1021,4 hPa 0,0 mm 0,0 km/h (0 Bft) N-NO 22 3,2 C 0,0 km/h (0 Bft)
12.05.2015 05:35 8,2 C 8,1 C 70 % 1021,3 hPa 0,0 mm 0,0 km/h (0 Bft) N-NW 337 3,1 C 0,0 km/h (0 Bft)
12.05.2015 05:40 8,3 C 8,1 C 70 % 1021,3 hPa 0,0 mm 0,0 km/h (0 Bft) N-NO 22 3,2 C 0,0 km/h (0 Bft)
12.05.2015 05:45 8,2 C 8,1 C 70 % 1021,3 hPa 0,0 mm 0,0 km/h (0 Bft) N-NW 337 3,1 C 0,0 km/h (0 Bft)
12.05.2015 05:50 8,0 C 7,9 C 70 % 1021,3 hPa 0,0 mm 0,0 km/h (0 Bft) N 360 2,9 C 0,0 km/h (0 Bft)
12.05.2015 05:55 7,8 C 7,7 C 71 % 1021,2 hPa 0,0 mm 0,0 km/h (0 Bft) N 360 2,9 C 0,0 km/h (0 Bft)
12.05.2015 06:00 8,0 C 7,9 C 71 % 1021,2 hPa 0,0 mm 0,0 km/h (0 Bft) NW 315 3,1 C 0,0 km/h (0 Bft)
12.05.2015 06:05 7,9 C 7,8 C 72 % 1021,2 hPa 0,0 mm 0,0 km/h (0 Bft) N 360 3,2 C 0,0 km/h (0 Bft)
12.05.2015 06:10 8,7 C 8,8 C 72 % 1021,2 hPa 0,0 mm 0,0 km/h (0 Bft) N-NO 22 3,9 C 0,0 km/h (0 Bft)
12.05.2015 06:15 8,9 C 9,8 C 69 % 1021,3 hPa 0,0 mm 0,0 km/h (0 Bft) N-NO 22 3,5 C 0,0 km/h (0 Bft)
12.05.2015 06:20 8,9 C 10,5 C 69 % 1021,3 hPa 0,0 mm 0,0 km/h (0 Bft) NO 45 3,5 C 0,0 km/h (0 Bft)
12.05.2015 06:25 9,1 C 10,5 C 69 % 1021,3 hPa 0,0 mm 0,0 km/h (0 Bft) N-NO 22 3,7 C 0,0 km/h (0 Bft)
12.05.2015 06:30 9,5 C 12,0 C 69 % 1021,3 hPa 0,0 mm 0,0 km/h (0 Bft) NO 45 4,1 C 0,0 km/h (0 Bft)
12.05.2015 06:35 9,8 C 13,6 C 69 % 1021,4 hPa 0,0 mm 0,0 km/h (0 Bft) N-NO 22 4,4 C 0,0 km/h (0 Bft)
12.05.2015 06:40 10,5 C 16,1 C 68 % 1021,4 hPa 0,0 mm 0,0 km/h (0 Bft) NO 45 4,8 C 0,0 km/h (0 Bft)
12.05.2015 06:45 11,0 C 16,6 C 68 % 1021,4 hPa 0,0 mm 0,0 km/h (0 Bft) N-NO 22 5,3 C 0,0 km/h (0 Bft)
12.05.2015 06:50 11,4 C 17,1 C 67 % 1021,4 hPa 0,0 mm 0,0 km/h (0 Bft) O-NO 67 5,5 C 0,0 km/h (0 Bft)
12.05.2015 06:55 12,1 C 18,2 C 67 % 1021,3 hPa 0,0 mm 0,0 km/h (0 Bft) O-NO 67 6,2 C 0,0 km/h (0 Bft)
12.05.2015 07:00 13,0 C 19,7 C 65 % 1021,3 hPa 0,0 mm 0,0 km/h (0 Bft) N-NO 22 6,6 C 0,0 km/h (0 Bft)
12.05.2015 07:05 13,4 C 20,5 C 64 % 1021,3 hPa 0,0 mm 0,0 km/h (0 Bft) O-NO 67 6,7 C 0,0 km/h (0 Bft)
12.05.2015 07:10 14,5 C 21,7 C 63 % 1021,3 hPa 0,0 mm 0,0 km/h (0 Bft) N-NO 22 7,5 C 0,0 km/h (0 Bft)
12.05.2015 07:15 15,1 C 23,0 C 63 % 1021,0 hPa 0,0 mm 0,0 km/h (0 Bft) N-NO 22 8,1 C 0,0 km/h (0 Bft)
12.05.2015 07:20 14,8 C 22,7 C 61 % 1021,0 hPa 0,0 mm 0,0 km/h (0 Bft) O-NO 67 7,4 C 0,0 km/h (0 Bft)
12.05.2015 07:25 14,6 C 21,4 C 62 % 1021,0 hPa 0,0 mm 0,0 km/h (0 Bft) O-NO 67 7,4 C 0,0 km/h (0 Bft)
12.05.2015 07:30 14,8 C 20,6 C 63 % 1021,0 hPa 0,0 mm 0,0 km/h (0 Bft) N-NO 22 7,8 C 0,0 km/h (0 Bft)
12.05.2015 07:35 15,1 C 20,3 C 63 % 1021,2 hPa 0,0 mm 0,0 km/h (0 Bft) N-NO 22 8,1 C 0,0 km/h (0 Bft)
12.05.2015 07:40 15,3 C 20,2 C 63 % 1021,2 hPa 0,0 mm 0,0 km/h (0 Bft) N-NW 337 8,3 C 0,0 km/h (0 Bft)
12.05.2015 07:45 15,4 C 19,8 C 63 % 1021,2 hPa 0,0 mm 0,0 km/h (0 Bft) NW 315 8,4 C 0,0 km/h (0 Bft)
12.05.2015 07:50 15,3 C 19,2 C 63 % 1021,2 hPa 0,0 mm 0,0 km/h (0 Bft) NW 315 8,3 C 0,0 km/h (0 Bft)
12.05.2015 07:55 15,2 C 19,1 C 63 % 1021,4 hPa 0,0 mm 0,0 km/h (0 Bft) S-SO 157 8,2 C 0,0 km/h (0 Bft)
12.05.2015 08:00 15,3 C 18,8 C 64 % 1021,4 hPa 0,0 mm 0,0 km/h (0 Bft) S-SO 157 8,5 C 0,0 km/h (0 Bft)
12.05.2015 08:05 15,6 C 19,0 C 64 % 1021,4 hPa 0,0 mm 0,0 km/h (0 Bft) S-SO 157 8,8 C 0,0 km/h (0 Bft)
12.05.2015 08:10 15,8 C 19,4 C 64 % 1021,4 hPa 0,0 mm 0,0 km/h (0 Bft) S-SO 157 9,0 C 0,0 km/h (0 Bft)
12.05.2015 08:15 15,9 C 19,9 C 63 % 1021,4 hPa 0,0 mm 0,0 km/h (0 Bft) S-SW 202 8,9 C 0,0 km/h (0 Bft)
12.05.2015 08:20 16,5 C 20,9 C 63 % 1021,4 hPa 0,0 mm 0,0 km/h (0 Bft) N-NW 337 9,4 C 0,0 km/h (0 Bft)
12.05.2015 08:25 16,7 C 21,3 C 62 % 1021,4 hPa 0,0 mm 0,0 km/h (0 Bft) O-NO 67 9,4 C 0,0 km/h (0 Bft)
12.05.2015 08:30 17,0 C 22,3 C 61 % 1021,4 hPa 0,0 mm 0,0 km/h (0 Bft) N-NO 22 9,4 C 0,0 km/h (0 Bft)
12.05.2015 08:35 17,4 C 23,5 C 61 % 1021,5 hPa 0,0 mm 0,0 km/h (0 Bft) O-NO 67 9,8 C 0,0 km/h (0 Bft)
12.05.2015 08:40 17,9 C 24,7 C 60 % 1021,5 hPa 0,0 mm 0,0 km/h (0 Bft) NW 315 10,0 C 0,0 km/h (0 Bft)
12.05.2015 08:45 18,3 C 25,6 C 59 % 1021,5 hPa 0,0 mm 0,0 km/h (0 Bft) N-NO 22 10,1 C 0,0 km/h (0 Bft)
12.05.2015 08:50 18,6 C 26,6 C 59 % 1021,5 hPa 0,0 mm 0,0 km/h (0 Bft) N-NO 22 10,4 C 0,0 km/h (0 Bft)
12.05.2015 08:55 18,8 C 27,4 C 59 % 1021,5 hPa 0,0 mm 0,0 km/h (0 Bft) N-NO 22 10,6 C 0,0 km/h (0 Bft)
12.05.2015 09:00 19,0 C 27,5 C 58 % 1021,5 hPa 0,0 mm 0,0 km/h (0 Bft) O-NO 67 10,5 C 0,0 km/h (0 Bft)
12.05.2015 09:05 19,3 C 27,9 C 57 % 1021,5 hPa 0,0 mm 0,0 km/h (0 Bft) O-NO 67 10,6 C 0,0 km/h (0 Bft)
12.05.2015 09:10 19,9 C 28,8 C 57 % 1021,5 hPa 0,0 mm 0,0 km/h (0 Bft) O-NO 67 11,1 C 0,0 km/h (0 Bft)
12.05.2015 09:15 20,4 C 29,2 C 56 % 1021,6 hPa 0,0 mm 0,0 km/h (0 Bft) O-NO 67 11,3 C 0,0 km/h (0 Bft)
12.05.2015 09:20 20,9 C 29,5 C 56 % 1021,6 hPa 0,0 mm 0,0 km/h (0 Bft) O-SO 112 11,8 C 0,0 km/h (0 Bft)
12.05.2015 09:25 20,9 C 29,4 C 56 % 1021,6 hPa 0,0 mm 0,0 km/h (0 Bft) O-SO 112 11,8 C 0,0 km/h (0 Bft)
12.05.2015 09:30 21,5 C 29,7 C 56 % 1021,6 hPa 0,0 mm 0,0 km/h (0 Bft) O-NO 67 12,3 C 0,0 km/h (0 Bft)
12.05.2015 09:35 21,7 C 29,6 C 55 % 1021,6 hPa 0,0 mm 0,0 km/h (0 Bft) NO 45 12,3 C 0,0 km/h (0 Bft)
12.05.2015 09:40 21,9 C 29,2 C 54 % 1021,6 hPa 0,0 mm 0,0 km/h (0 Bft) O-NO 67 12,2 C 0,0 km/h (0 Bft)
12.05.2015 09:45 22,2 C 29,5 C 54 % 1021,6 hPa 0,0 mm 0,0 km/h (0 Bft) W-SW 247 12,4 C 0,0 km/h (0 Bft)
12.05.2015 09:50 22,7 C 30,2 C 51 % 1021,6 hPa 0,0 mm 0,0 km/h (0 Bft) O 90 12,0 C 0,0 km/h (0 Bft)
12.05.2015 09:55 23,0 C 30,5 C 49 % 1021,8 hPa 0,0 mm 0,0 km/h (0 Bft) O-SO 112 11,7 C 0,0 km/h (0 Bft)
12.05.2015 10:00 23,5 C 30,9 C 48 % 1021,8 hPa 0,0 mm 0,0 km/h (0 Bft) O-NO 67 11,8 C 0,0 km/h (0 Bft)
12.05.2015 10:05 23,7 C 31,2 C 48 % 1021,8 hPa 0,0 mm 0,0 km/h (0 Bft) O-NO 67 12,0 C 0,0 km/h (0 Bft)
12.05.2015 10:10 23,8 C 31,2 C 45 % 1021,8 hPa 0,0 mm 0,5 km/h (0 Bft) W-NW 292 11,1 C 4,9 km/h (1 Bft)
12.05.2015 10:15 24,2 C 31,2 C 45 % 1021,6 hPa 0,0 mm 0,8 km/h (0 Bft) W-NW 292 11,5 C 3,1 km/h (1 Bft)
12.05.2015 10:20 24,3 C 31,5 C 44 % 1021,6 hPa 0,0 mm 0,5 km/h (0 Bft) S-SW 202 11,3 C 3,1 km/h (1 Bft)
12.05.2015 10:25 24,3 C 31,5 C 45 % 1021,6 hPa 0,0 mm 0,3 km/h (0 Bft) N-NW 337 11,6 C 3,9 km/h (1 Bft)
12.05.2015 10:30 24,5 C 31,2 C 45 % 1021,6 hPa 0,0 mm 1,6 km/h (1 Bft) W 270 11,8 C 8,0 km/h (2 Bft)
12.05.2015 10:35 25,1 C 31,3 C 43 % 1021,8 hPa 0,0 mm 2,8 km/h (1 Bft) N 360 11,6 C 2,6 km/h (1 Bft)
12.05.2015 10:40 24,8 C 30,5 C 42 % 1021,8 hPa 0,0 mm 5,7 km/h (1 Bft) N-NW 337 11,0 C 14,2 km/h (3 Bft)
12.05.2015 10:45 24,7 C 29,8 C 43 % 1021,8 hPa 0,0 mm 6,7 km/h (2 Bft) NW 315 11,3 C 7,3 km/h (2 Bft)
12.05.2015 10:50 24,8 C 29,4 C 41 % 1021,8 hPa 0,0 mm 7,3 km/h (2 Bft) N-NW 337 10,6 C 6,5 km/h (2 Bft)
12.05.2015 10:55 24,9 C 29,5 C 42 % 1021,8 hPa 0,0 mm 7,5 km/h (2 Bft) NW 315 11,1 C 15,3 km/h (3 Bft)
12.05.2015 11:00 25,1 C 29,4 C 39 % 1021,8 hPa 0,0 mm 8,5 km/h (2 Bft) N-NW 337 10,2 C 14,8 km/h (3 Bft)
12.05.2015 11:05 24,9 C 29,3 C 39 % 1021,8 hPa 0,0 mm 9,8 km/h (2 Bft) W-SW 247 10,0 C 15,0 km/h (3 Bft)
12.05.2015 11:10 24,9 C 29,2 C 38 % 1021,8 hPa 0,0 mm 9,8 km/h (2 Bft) W 270 9,6 C 16,3 km/h (3 Bft)
12.05.2015 11:15 25,1 C 29,0 C 38 % 1021,6 hPa 0,0 mm 9,6 km/h (2 Bft) NW 315 9,8 C 8,5 km/h (2 Bft)
12.05.2015 11:20 25,1 C 29,0 C 39 % 1021,6 hPa 0,0 mm 9,1 km/h (2 Bft) W-NW 292 10,2 C 16,8 km/h (3 Bft)
12.05.2015 11:25 25,2 C 29,0 C 38 % 1021,6 hPa 0,0 mm 9,8 km/h (2 Bft) NW 315 9,9 C 11,1 km/h (2 Bft)
12.05.2015 11:30 25,3 C 29,0 C 37 % 1021,6 hPa 0,0 mm 9,1 km/h (2 Bft) N-NW 337 9,6 C 17,3 km/h (3 Bft)
12.05.2015 11:35 25,6 C 29,6 C 38 % 1021,8 hPa 0,0 mm 8,5 km/h (2 Bft) NW 315 10,2 C 11,4 km/h (2 Bft)
12.05.2015 11:40 25,4 C 29,4 C 38 % 1021,8 hPa 0,0 mm 9,1 km/h (2 Bft) W-NW 292 10,0 C 13,7 km/h (3 Bft)
12.05.2015 11:45 25,4 C 29,2 C 37 % 1021,8 hPa 0,0 mm 10,9 km/h (2 Bft) W 270 9,6 C 17,3 km/h (3 Bft)
12.05.2015 11:50 25,3 C 29,0 C 36 % 1021,8 hPa 0,0 mm 11,4 km/h (2 Bft) W-NW 292 9,1 C 21,2 km/h (4 Bft)
12.05.2015 11:55 25,3 C 29,0 C 35 % 1021,8 hPa 0,0 mm 10,4 km/h (2 Bft) W-SW 247 8,7 C 16,3 km/h (3 Bft)
12.05.2015 12:00 25,2 C 29,0 C 36 % 1021,8 hPa 0,0 mm 11,1 km/h (2 Bft) W-SW 247 9,1 C 18,4 km/h (3 Bft)
12.05.2015 12:05 25,2 C 28,9 C 36 % 1021,8 hPa 0,0 mm 11,9 km/h (2 Bft) NW 315 9,1 C 21,0 km/h (4 Bft)
12.05.2015 12:10 25,1 C 28,6 C 36 % 1021,8 hPa 0,0 mm 12,7 km/h (3 Bft) NW 315 9,0 C 22,0 km/h (4 Bft)
12.05.2015 12:15 25,1 C 28,7 C 36 % 1021,7 hPa 0,0 mm 11,7 km/h (2 Bft) NW 315 9,0 C 17,1 km/h (3 Bft)
12.05.2015 12:20 25,2 C 28,9 C 36 % 1021,7 hPa 0,0 mm 12,2 km/h (2 Bft) W 270 9,1 C 28,5 km/h (4 Bft)
12.05.2015 12:25 25,1 C 29,0 C 36 % 1021,7 hPa 0,0 mm 10,6 km/h (2 Bft) W-NW 292 9,0 C 12,7 km/h (3 Bft)
12.05.2015 12:30 25,2 C 28,8 C 37 % 1021,7 hPa 0,0 mm 10,6 km/h (2 Bft) W 270 9,5 C 9,1 km/h (2 Bft)
12.05.2015 12:35 25,3 C 29,3 C 37 % 1021,5 hPa 0,0 mm 9,6 km/h (2 Bft) W-SW 247 9,6 C 7,5 km/h (2 Bft)
12.05.2015 12:40 25,2 C 29,2 C 37 % 1021,5 hPa 0,0 mm 8,5 km/h (2 Bft) NW 315 9,5 C 11,9 km/h (2 Bft)
12.05.2015 12:45 25,2 C 28,8 C 36 % 1021,5 hPa 0,0 mm 11,1 km/h (2 Bft) N 360 9,1 C 7,8 km/h (2 Bft)
12.05.2015 12:50 25,4 C 29,1 C 36 % 1021,5 hPa 0,0 mm 9,8 km/h (2 Bft) W-NW 292 9,2 C 29,3 km/h (5 Bft)
12.05.2015 12:55 25,5 C 29,5 C 36 % 1021,4 hPa 0,0 mm 8,0 km/h (2 Bft) W 270 9,3 C 15,3 km/h (3 Bft)
12.05.2015 13:00 25,6 C 29,0 C 36 % 1021,4 hPa 0,0 mm 11,1 km/h (2 Bft) W 270 9,4 C 17,1 km/h (3 Bft)
12.05.2015 13:05 25,6 C 28,7 C 36 % 1021,4 hPa 0,0 mm 11,4 km/h (2 Bft) W-SW 247 9,4 C 7,8 km/h (2 Bft)
12.05.2015 13:10 25,4 C 28,4 C 34 % 1021,4 hPa 0,0 mm 11,9 km/h (2 Bft) W-NW 292 8,4 C 20,2 km/h (4 Bft)
12.05.2015 13:15 25,4 C 28,2 C 34 % 1021,2 hPa 0,0 mm 11,4 km/h (2 Bft) NW 315 8,4 C 11,1 km/h (2 Bft)
12.05.2015 13:20 25,8 C 28,4 C 35 % 1021,2 hPa 0,0 mm 11,9 km/h (2 Bft) N-NW 337 9,2 C 14,0 km/h (3 Bft)
12.05.2015 13:25 25,9 C 28,7 C 33 % 1021,2 hPa 0,0 mm 13,2 km/h (3 Bft) W-NW 292 8,4 C 24,6 km/h (4 Bft)
12.05.2015 13:30 25,9 C 29,0 C 34 % 1021,2 hPa 0,0 mm 12,7 km/h (3 Bft) NW 315 8,8 C 15,5 km/h (3 Bft)
12.05.2015 13:35 26,2 C 29,3 C 34 % 1021,1 hPa 0,0 mm 11,9 km/h (2 Bft) W 270 9,1 C 22,3 km/h (4 Bft)
12.05.2015 13:40 25,9 C 29,2 C 32 % 1021,1 hPa 0,0 mm 12,4 km/h (3 Bft) W 270 7,9 C 31,8 km/h (5 Bft)
12.05.2015 13:45 25,8 C 29,2 C 32 % 1021,1 hPa 0,0 mm 11,9 km/h (2 Bft) O-SO 112 7,8 C 17,6 km/h (3 Bft)
12.05.2015 13:50 25,8 C 28,9 C 32 % 1021,1 hPa 0,0 mm 11,9 km/h (2 Bft) N 360 7,8 C 18,1 km/h (3 Bft)
12.05.2015 13:55 25,8 C 28,8 C 32 % 1021,2 hPa 0,0 mm 14,2 km/h (3 Bft) W 270 7,8 C 26,9 km/h (4 Bft)
12.05.2015 14:00 25,9 C 28,9 C 31 % 1021,2 hPa 0,0 mm 14,0 km/h (3 Bft) SW 225 7,5 C 8,0 km/h (2 Bft)
12.05.2015 14:05 26,0 C 29,0 C 31 % 1021,2 hPa 0,0 mm 13,5 km/h (3 Bft) N-NW 337 7,5 C 11,4 km/h (2 Bft)
12.05.2015 14:10 26,3 C 29,4 C 31 % 1021,2 hPa 0,0 mm 12,7 km/h (3 Bft) W-NW 292 7,8 C 22,3 km/h (4 Bft)
12.05.2015 14:15 26,3 C 29,6 C 31 % 1020,9 hPa 0,0 mm 11,7 km/h (2 Bft) W-NW 292 7,8 C 11,1 km/h (2 Bft)
12.05.2015 14:20 26,6 C 30,3 C 31 % 1020,9 hPa 0,0 mm 10,6 km/h (2 Bft) W-NW 292 8,1 C 18,9 km/h (3 Bft)
12.05.2015 14:25 26,7 C 30,5 C 32 % 1020,9 hPa 0,0 mm 8,3 km/h (2 Bft) W-NW 292 8,6 C 9,3 km/h (2 Bft)
12.05.2015 14:30 26,6 C 30,6 C 30 % 1020,9 hPa 0,0 mm 9,1 km/h (2 Bft) W 270 7,6 C 24,6 km/h (4 Bft)
12.05.2015 14:35 26,4 C 30,0 C 30 % 1020,7 hPa 0,0 mm 10,9 km/h (2 Bft) W 270 7,4 C 11,4 km/h (2 Bft)
12.05.2015 14:40 26,3 C 29,6 C 29 % 1020,7 hPa 0,0 mm 13,7 km/h (3 Bft) W 270 6,8 C 20,2 km/h (4 Bft)
12.05.2015 14:45 26,2 C 29,3 C 28 % 1020,7 hPa 0,0 mm 13,5 km/h (3 Bft) NO 45 6,2 C 8,5 km/h (2 Bft)
12.05.2015 14:50 26,4 C 29,5 C 29 % 1020,7 hPa 0,0 mm 12,2 km/h (2 Bft) NW 315 6,9 C 18,1 km/h (3 Bft)
12.05.2015 14:55 26,3 C 29,4 C 29 % 1020,8 hPa 0,0 mm 10,6 km/h (2 Bft) NW 315 6,8 C 7,3 km/h (2 Bft)
12.05.2015 15:00 26,5 C 29,8 C 29 % 1020,8 hPa 0,0 mm 10,4 km/h (2 Bft) W-NW 292 7,0 C 23,6 km/h (4 Bft)
12.05.2015 15:05 26,2 C 29,7 C 28 % 1020,8 hPa 0,0 mm 10,9 km/h (2 Bft) W 270 6,2 C 13,7 km/h (3 Bft)
12.05.2015 15:10 26,3 C 29,5 C 30 % 1020,8 hPa 0,0 mm 11,7 km/h (2 Bft) W-SW 247 7,3 C 10,6 km/h (2 Bft)
12.05.2015 15:15 26,1 C 29,4 C 29 % 1020,6 hPa 0,0 mm 11,1 km/h (2 Bft) W-SW 247 6,7 C 14,2 km/h (3 Bft)
12.05.2015 15:20 26,1 C 29,5 C 29 % 1020,6 hPa 0,0 mm 10,6 km/h (2 Bft) W-NW 292 6,7 C 8,0 km/h (2 Bft)
12.05.2015 15:25 26,3 C 29,6 C 30 % 1020,6 hPa 0,0 mm 9,8 km/h (2 Bft) N-NW 337 7,3 C 9,3 km/h (2 Bft)
12.05.2015 15:30 26,2 C 29,5 C 30 % 1020,6 hPa 0,0 mm 10,6 km/h (2 Bft) W 270 7,2 C 16,1 km/h (3 Bft)
12.05.2015 15:35 26,1 C 29,1 C 29 % 1020,5 hPa 0,0 mm 12,4 km/h (3 Bft) W 270 6,7 C 21,8 km/h (4 Bft)
12.05.2015 15:40 25,8 C 28,7 C 29 % 1020,5 hPa 0,0 mm 14,8 km/h (3 Bft) W-NW 292 6,4 C 16,3 km/h (3 Bft)
12.05.2015 15:45 25,8 C 28,7 C 30 % 1020,5 hPa 0,0 mm 13,5 km/h (3 Bft) N-NO 22 6,9 C 7,8 km/h (2 Bft)
12.05.2015 15:50 26,0 C 29,1 C 30 % 1020,5 hPa 0,0 mm 9,6 km/h (2 Bft) NW 315 7,1 C 14,5 km/h (3 Bft)
12.05.2015 15:55 25,9 C 29,1 C 30 % 1020,4 hPa 0,0 mm 10,1 km/h (2 Bft) NW 315 7,0 C 29,0 km/h (5 Bft)
12.05.2015 16:00 26,0 C 29,1 C 30 % 1020,4 hPa 0,0 mm 10,1 km/h (2 Bft) W 270 7,1 C 10,6 km/h (2 Bft)
12.05.2015 16:05 25,8 C 29,3 C 30 % 1020,4 hPa 0,0 mm 10,9 km/h (2 Bft) W 270 6,9 C 24,1 km/h (4 Bft)
12.05.2015 16:10 25,5 C 29,2 C 30 % 1020,4 hPa 0,0 mm 12,4 km/h (3 Bft) W-SW 247 6,6 C 10,6 km/h (2 Bft)
12.05.2015 16:15 25,4 C 29,2 C 30 % 1020,1 hPa 0,0 mm 12,7 km/h (3 Bft) W 270 6,6 C 20,2 km/h (4 Bft)
12.05.2015 16:20 25,4 C 29,2 C 30 % 1020,1 hPa 0,0 mm 11,9 km/h (2 Bft) W 270 6,6 C 12,9 km/h (3 Bft)
12.05.2015 16:25 25,4 C 29,3 C 30 % 1020,1 hPa 0,0 mm 11,9 km/h (2 Bft) W-NW 292 6,6 C 12,2 km/h (2 Bft)
12.05.2015 16:30 25,4 C 29,2 C 30 % 1020,1 hPa 0,0 mm 11,7 km/h (2 Bft) W 270 6,6 C 13,2 km/h (3 Bft)
12.05.2015 16:35 25,3 C 29,1 C 30 % 1020,1 hPa 0,0 mm 11,4 km/h (2 Bft) W 270 6,5 C 12,7 km/h (3 Bft)
12.05.2015 16:40 25,3 C 29,1 C 28 % 1020,1 hPa 0,0 mm 12,2 km/h (2 Bft) W 270 5,5 C 29,8 km/h (5 Bft)
12.05.2015 16:45 25,3 C 28,5 C 28 % 1020,1 hPa 0,0 mm 12,2 km/h (2 Bft) W 270 5,5 C 15,0 km/h (3 Bft)
12.05.2015 16:50 25,2 C 27,4 C 29 % 1020,1 hPa 0,0 mm 13,5 km/h (3 Bft) W-SW 247 5,9 C 11,1 km/h (2 Bft)
12.05.2015 16:55 25,2 C 26,9 C 29 % 1020,1 hPa 0,0 mm 13,5 km/h (3 Bft) W-SW 247 5,9 C 17,1 km/h (3 Bft)
12.05.2015 17:00 25,1 C 26,6 C 30 % 1020,1 hPa 0,0 mm 12,7 km/h (3 Bft) NW 315 6,3 C 10,9 km/h (2 Bft)
12.05.2015 17:05 25,1 C 26,6 C 30 % 1020,1 hPa 0,0 mm 11,7 km/h (2 Bft) SW 225 6,3 C 10,4 km/h (2 Bft)
12.05.2015 17:10 25,0 C 26,5 C 30 % 1020,1 hPa 0,0 mm 9,6 km/h (2 Bft) W-SW 247 6,2 C 14,2 km/h (3 Bft)
12.05.2015 17:15 25,0 C 26,6 C 30 % 1019,9 hPa 0,0 mm 8,5 km/h (2 Bft) NW 315 6,2 C 8,8 km/h (2 Bft)
12.05.2015 17:20 25,1 C 26,6 C 30 % 1019,9 hPa 0,0 mm 8,0 km/h (2 Bft) W 270 6,3 C 6,5 km/h (2 Bft)
12.05.2015 17:25 25,1 C 26,6 C 30 % 1019,9 hPa 0,0 mm 8,8 km/h (2 Bft) O-SO 112 6,3 C 9,8 km/h (2 Bft)
12.05.2015 17:30 24,9 C 26,4 C 30 % 1019,9 hPa 0,0 mm 10,6 km/h (2 Bft) W-SW 247 6,1 C 15,3 km/h (3 Bft)
12.05.2015 17:35 24,8 C 26,2 C 30 % 1019,8 hPa 0,0 mm 12,2 km/h (2 Bft) W-NW 292 6,0 C 28,2 km/h (4 Bft)
12.05.2015 17:40 24,8 C 26,0 C 30 % 1019,8 hPa 0,0 mm 13,2 km/h (3 Bft) W-SW 247 6,0 C 20,2 km/h (4 Bft)
12.05.2015 17:45 24,7 C 25,9 C 29 % 1019,8 hPa 0,0 mm 14,8 km/h (3 Bft) W 270 5,5 C 20,5 km/h (4 Bft)
12.05.2015 17:50 24,6 C 25,8 C 30 % 1019,8 hPa 0,0 mm 12,9 km/h (3 Bft) NW 315 5,9 C 13,5 km/h (3 Bft)
12.05.2015 17:55 24,6 C 25,7 C 30 % 1019,7 hPa 0,0 mm 10,1 km/h (2 Bft) W 270 5,9 C 8,0 km/h (2 Bft)
12.05.2015 18:00 24,5 C 25,6 C 30 % 1019,7 hPa 0,0 mm 9,3 km/h (2 Bft) NW 315 5,8 C 6,0 km/h (2 Bft)
12.05.2015 18:05 24,5 C 25,6 C 30 % 1019,7 hPa 0,0 mm 9,6 km/h (2 Bft) W 270 5,8 C 17,1 km/h (3 Bft)
12.05.2015 18:10 24,4 C 25,4 C 30 % 1019,7 hPa 0,0 mm 9,1 km/h (2 Bft) W-NW 292 5,7 C 4,9 km/h (1 Bft)
12.05.2015 18:15 24,3 C 25,3 C 30 % 1019,7 hPa 0,0 mm 9,8 km/h (2 Bft) SW 225 5,6 C 12,7 km/h (3 Bft)
12.05.2015 18:20 24,2 C 25,3 C 30 % 1019,7 hPa 0,0 mm 8,5 km/h (2 Bft) W-NW 292 5,5 C 4,7 km/h (1 Bft)
12.05.2015 18:25 24,1 C 25,2 C 31 % 1019,7 hPa 0,0 mm 7,8 km/h (2 Bft) W-NW 292 5,9 C 10,1 km/h (2 Bft)
12.05.2015 18:30 23,9 C 25,0 C 32 % 1019,7 hPa 0,0 mm 5,4 km/h (1 Bft) NW 315 6,2 C 3,9 km/h (1 Bft)
12.05.2015 18:35 23,7 C 24,9 C 33 % 1019,5 hPa 0,0 mm 4,1 km/h (1 Bft) W 270 6,5 C 2,8 km/h (1 Bft)
12.05.2015 18:40 23,4 C 24,8 C 36 % 1019,5 hPa 0,0 mm 1,0 km/h (0 Bft) SW 225 7,5 C 0,0 km/h (0 Bft)
12.05.2015 18:45 23,3 C 24,7 C 36 % 1019,5 hPa 0,0 mm 0,5 km/h (0 Bft) S-SW 202 7,4 C 2,8 km/h (1 Bft)
12.05.2015 18:50 23,2 C 24,7 C 35 % 1019,5 hPa 0,0 mm 1,3 km/h (1 Bft) W-NW 292 6,9 C 2,8 km/h (1 Bft)
12.05.2015 18:55 23,0 C 24,6 C 36 % 1019,4 hPa 0,0 mm 1,6 km/h (1 Bft) S 180 7,1 C 4,9 km/h (1 Bft)
12.05.2015 19:00 22,9 C 24,3 C 35 % 1019,4 hPa 0,0 mm 2,8 km/h (1 Bft) W-SW 247 6,6 C 3,6 km/h (1 Bft)
12.05.2015 19:05 22,7 C 24,2 C 38 % 1019,4 hPa 0,0 mm 2,6 km/h (1 Bft) SW 225 7,6 C 0,0 km/h (0 Bft)
12.05.2015 19:10 22,6 C 23,9 C 38 % 1019,4 hPa 0,0 mm 1,3 km/h (1 Bft) S-SW 202 7,6 C 3,1 km/h (1 Bft)
12.05.2015 19:15 22,6 C 23,8 C 38 % 1019,4 hPa 0,0 mm 1,6 km/h (1 Bft) SW 225 7,6 C 5,7 km/h (1 Bft)
12.05.2015 19:20 22,3 C 23,5 C 40 % 1019,4 hPa 0,0 mm 3,1 km/h (1 Bft) SW 225 8,0 C 3,4 km/h (1 Bft)
12.05.2015 19:25 21,8 C 23,3 C 43 % 1019,4 hPa 0,0 mm 3,4 km/h (1 Bft) S-SW 202 8,7 C 7,0 km/h (2 Bft)
12.05.2015 19:30 21,5 C 22,9 C 43 % 1019,4 hPa 0,0 mm 3,6 km/h (1 Bft) S 180 8,4 C 3,1 km/h (1 Bft)
12.05.2015 19:35 21,2 C 22,6 C 44 % 1019,6 hPa 0,0 mm 3,9 km/h (1 Bft) S 180 8,5 C 0,0 km/h (0 Bft)
12.05.2015 19:40 21,2 C 22,4 C 44 % 1019,6 hPa 0,0 mm 3,4 km/h (1 Bft) SO 135 8,5 C 0,0 km/h (0 Bft)
12.05.2015 19:45 21,0 C 22,1 C 45 % 1019,6 hPa 0,0 mm 3,1 km/h (1 Bft) S 180 8,6 C 0,0 km/h (0 Bft)
12.05.2015 19:50 20,9 C 21,7 C 44 % 1019,6 hPa 0,0 mm 3,1 km/h (1 Bft) S-SW 202 8,2 C 8,0 km/h (2 Bft)
12.05.2015 19:55 20,8 C 21,7 C 44 % 1019,2 hPa 0,0 mm 4,1 km/h (1 Bft) SW 225 8,1 C 9,3 km/h (2 Bft)
12.05.2015 20:00 20,9 C 21,5 C 42 % 1019,2 hPa 0,0 mm 4,9 km/h (1 Bft) SW 225 7,5 C 4,9 km/h (1 Bft)
12.05.2015 20:05 20,7 C 21,4 C 43 % 1019,2 hPa 0,0 mm 4,7 km/h (1 Bft) SW 225 7,7 C 6,7 km/h (2 Bft)
12.05.2015 20:10 20,4 C 21,2 C 44 % 1019,2 hPa 0,0 mm 4,9 km/h (1 Bft) S-SW 202 7,7 C 7,3 km/h (2 Bft)
12.05.2015 20:15 20,4 C 21,0 C 43 % 1019,3 hPa 0,0 mm 5,4 km/h (1 Bft) SO 135 7,4 C 8,8 km/h (2 Bft)
12.05.2015 20:20 20,0 C 20,8 C 44 % 1019,3 hPa 0,0 mm 4,1 km/h (1 Bft) S 180 7,4 C 3,4 km/h (1 Bft)
12.05.2015 20:25 19,9 C 20,4 C 44 % 1019,3 hPa 0,0 mm 3,6 km/h (1 Bft) SW 225 7,3 C 4,4 km/h (1 Bft)
12.05.2015 20:30 19,7 C 20,2 C 45 % 1019,3 hPa 0,0 mm 3,4 km/h (1 Bft) S-SO 157 7,4 C 0,0 km/h (0 Bft)
12.05.2015 20:35 19,1 C 19,9 C 46 % 1019,3 hPa 0,0 mm 2,6 km/h (1 Bft) S 180 7,2 C 0,0 km/h (0 Bft)
12.05.2015 20:40 18,6 C 19,6 C 48 % 1019,3 hPa 0,0 mm 2,8 km/h (1 Bft) S 180 7,4 C 6,0 km/h (2 Bft)
12.05.2015 20:45 18,7 C 19,6 C 48 % 1019,3 hPa 0,0 mm 4,1 km/h (1 Bft) S 180 7,5 C 4,7 km/h (1 Bft)
12.05.2015 20:50 18,2 C 19,2 C 48 % 1019,3 hPa 0,0 mm 4,7 km/h (1 Bft) W-SW 247 7,0 C 13,2 km/h (3 Bft)
12.05.2015 20:55 18,7 C 19,4 C 47 % 1019,4 hPa 0,0 mm 5,4 km/h (1 Bft) S-SW 202 7,2 C 10,4 km/h (2 Bft)
12.05.2015 21:00 19,2 C 19,6 C 45 % 1019,4 hPa 0,0 mm 7,0 km/h (2 Bft) SW 225 7,0 C 7,0 km/h (2 Bft)
12.05.2015 21:05 19,5 C 19,6 C 45 % 1019,4 hPa 0,0 mm 6,7 km/h (2 Bft) SW 225 7,2 C 9,8 km/h (2 Bft)
12.05.2015 21:10 19,4 C 19,6 C 44 % 1019,4 hPa 0,0 mm 6,5 km/h (2 Bft) S 180 6,8 C 9,8 km/h (2 Bft)
12.05.2015 21:15 19,6 C 19,7 C 44 % 1019,4 hPa 0,0 mm 7,8 km/h (2 Bft) S 180 7,0 C 9,8 km/h (2 Bft)
12.05.2015 21:20 19,4 C 19,8 C 44 % 1019,4 hPa 0,0 mm 8,5 km/h (2 Bft) SW 225 6,8 C 8,0 km/h (2 Bft)
12.05.2015 21:25 18,9 C 19,6 C 44 % 1019,4 hPa 0,0 mm 8,3 km/h (2 Bft) S 180 6,4 C 10,9 km/h (2 Bft)
12.05.2015 21:30 18,4 C 19,2 C 46 % 1019,4 hPa 0,0 mm 7,3 km/h (2 Bft) S 180 6,6 C 11,9 km/h (2 Bft)
12.05.2015 21:35 18,1 C 18,9 C 46 % 1019,6 hPa 0,0 mm 6,5 km/h (2 Bft) S-SW 202 6,3 C 7,5 km/h (2 Bft)
12.05.2015 21:40 17,9 C 18,5 C 47 % 1019,6 hPa 0,0 mm 5,7 km/h (1 Bft) S-SO 157 6,4 C 4,7 km/h (1 Bft)
12.05.2015 21:45 18,1 C 18,4 C 47 % 1019,6 hPa 0,0 mm 5,4 km/h (1 Bft) SW 225 6,6 C 14,0 km/h (3 Bft)
12.05.2015 21:50 18,1 C 18,4 C 47 % 1019,6 hPa 0,0 mm 6,5 km/h (2 Bft) SW 225 6,6 C 15,0 km/h (3 Bft)
12.05.2015 21:55 18,2 C 18,5 C 47 % 1019,5 hPa 0,0 mm 7,8 km/h (2 Bft) W 270 6,7 C 7,8 km/h (2 Bft)
12.05.2015 22:00 18,0 C 18,5 C 47 % 1019,5 hPa 0,0 mm 8,0 km/h (2 Bft) SW 225 6,5 C 8,5 km/h (2 Bft)
12.05.2015 22:05 18,0 C 18,6 C 47 % 1019,5 hPa 0,0 mm 7,5 km/h (2 Bft) W-SW 247 6,5 C 12,7 km/h (3 Bft)
12.05.2015 22:10 17,7 C 18,4 C 48 % 1019,5 hPa 0,0 mm 7,3 km/h (2 Bft) SW 225 6,6 C 11,7 km/h (2 Bft)
12.05.2015 22:15 17,5 C 18,2 C 48 % 1019,6 hPa 0,0 mm 5,7 km/h (1 Bft) SW 225 6,4 C 2,8 km/h (1 Bft)
12.05.2015 22:20 17,4 C 17,8 C 49 % 1019,6 hPa 0,0 mm 3,1 km/h (1 Bft) S 180 6,6 C 4,4 km/h (1 Bft)
12.05.2015 22:25 17,3 C 17,6 C 48 % 1019,6 hPa 0,0 mm 1,6 km/h (1 Bft) S 180 6,2 C 0,0 km/h (0 Bft)
12.05.2015 22:30 17,4 C 17,5 C 48 % 1019,6 hPa 0,0 mm 2,6 km/h (1 Bft) SO 135 6,3 C 0,0 km/h (0 Bft)
12.05.2015 22:35 17,4 C 17,4 C 48 % 1019,2 hPa 0,0 mm 2,3 km/h (1 Bft) W-NW 292 6,3 C 6,2 km/h (2 Bft)
12.05.2015 22:40 17,9 C 17,8 C 47 % 1019,2 hPa 0,0 mm 3,9 km/h (1 Bft) S 180 6,4 C 0,0 km/h (0 Bft)
12.05.2015 22:45 17,9 C 17,8 C 47 % 1019,2 hPa 0,0 mm 5,4 km/h (1 Bft) W-SW 247 6,4 C 7,5 km/h (2 Bft)
12.05.2015 22:50 18,2 C 18,1 C 46 % 1019,2 hPa 0,0 mm 6,5 km/h (2 Bft) SW 225 6,4 C 11,9 km/h (2 Bft)
12.05.2015 22:55 18,2 C 18,1 C 46 % 1019,3 hPa 0,0 mm 7,0 km/h (2 Bft) S-SW 202 6,4 C 8,0 km/h (2 Bft)
12.05.2015 23:00 17,8 C 18,1 C 46 % 1019,3 hPa 0,0 mm 6,7 km/h (2 Bft) W 270 6,0 C 4,4 km/h (1 Bft)
12.05.2015 23:05 16,3 C 17,7 C 49 % 1019,3 hPa 0,0 mm 4,1 km/h (1 Bft) S 180 5,6 C 0,0 km/h (0 Bft)
12.05.2015 23:10 15,8 C 17,0 C 52 % 1019,3 hPa 0,0 mm 3,4 km/h (1 Bft) SW 225 6,0 C 10,6 km/h (2 Bft)
12.05.2015 23:15 16,8 C 17,2 C 50 % 1019,4 hPa 0,0 mm 4,1 km/h (1 Bft) SO 135 6,3 C 0,0 km/h (0 Bft)
12.05.2015 23:20 15,7 C 16,9 C 51 % 1019,4 hPa 0,0 mm 4,1 km/h (1 Bft) W-SW 247 5,6 C 0,0 km/h (0 Bft)
12.05.2015 23:25 15,4 C 16,0 C 55 % 1019,4 hPa 0,0 mm 2,6 km/h (1 Bft) SO 135 6,4 C 0,0 km/h (0 Bft)
12.05.2015 23:30 15,8 C 15,8 C 55 % 1019,4 hPa 0,0 mm 1,3 km/h (1 Bft) W-SW 247 6,8 C 3,9 km/h (1 Bft)
12.05.2015 23:35 15,4 C 15,6 C 55 % 1019,4 hPa 0,0 mm 0,8 km/h (0 Bft) SW 225 6,4 C 0,0 km/h (0 Bft)
12.05.2015 23:40 14,4 C 15,1 C 56 % 1019,4 hPa 0,0 mm 0,3 km/h (0 Bft) W-SW 247 5,7 C 0,0 km/h (0 Bft)
12.05.2015 23:45 14,1 C 14,7 C 56 % 1019,4 hPa 0,0 mm 0,0 km/h (0 Bft) S 180 5,5 C 3,6 km/h (1 Bft)
12.05.2015 23:50 14,9 C 15,0 C 57 % 1019,4 hPa 0,0 mm 2,8 km/h (1 Bft) SW 225 6,5 C 11,7 km/h (2 Bft)
12.05.2015 23:55 16,1 C 16,1 C 54 % 1019,5 hPa 0,0 mm 5,2 km/h (1 Bft) SW 225 6,8 C 14,5 km/h (3 Bft)
_ Min-Zeit 05:55 05:55 16:45 22:50 - 23:45 - - 05:50 23:40
Minimum _ 7,8 C 7,7 C 28 % 1019,2 hPa - 0,0 km/h (0 Bft) - - 2,9 C 0,0 km/h (0 Bft)
_ Max-Zeit 14:25 10:25 02:45 01:10 23:55 17:45 - - 09:45 13:40
Maximum _ 26,7 C 31,5 C 75 % 1023,1 hPa 0,0 mm 14,8 km/h
W (3 Bft)
- - 12,4 C 31,8 km/h
W (5 Bft)
Durchschnitt _ 18,1 C 20,4 C 51 % 1021,0 hPa #0,0 mm 4,6 km/h (1 Bft) W - 6,8 C 6,3 km/h (2 Bft)